Bangor, ME

6:26 AM EDT on October 16, 2019 (GMT -0400)
Bangor International

Weather History for KBGR - August, 2019

Change the Weather History Date:

Wednesday, August 14, 2019

  Actual Average Record
Temperature  
Mean Temperature 68 °F 68 °F  
Max Temperature 79 °F 79 °F 103 °F (1948)
Min Temperature 57 °F 57 °F 43 °F (1964)
Degree Days  
Heating Degree Days 0 1  
Month to date heating degree days 1 14  
Since 1 June heating degree days 91 144  
Since 1 July heating degree days 1 37  
Cooling Degree Days 3 4  
Month to date cooling degree days 53 56  
Year to date cooling degree days 279 246  
Since 1 June cooling degree days 279 240  
Growing Degree Days 17 (Base 50)    
Moisture  
Dew Point 53 °F    
Average Humidity 63    
Maximum Humidity 90    
Minimum Humidity 36    
Precipitation  
Precipitation 0.00 in 0.09 in 1.77 in (1943)
Month to date precipitation 3.85 1.45  
Year to date precipitation 32.52 24.72  
Snow  
Snow 0.00 in 0.00 in 0.00 in (2002)
Month to date snowfall 0.0 0.0  
Since 1 June snowfall 0.0 0.0  
Since 1 July snowfall 0.0 0.0  
Snow Depth 0.00 in    
Sea Level Pressure  
Sea Level Pressure 29.88 in    
Wind  
Wind Speed 6 mph (North)    
Max Wind Speed 12 mph    
Max Gust Speed 17 mph    
Visibility 10 miles    
Events      
T = Trace of Precipitation, MM = Missing Value Source: NWS Daily Summary

Daily Weather History Graph

Daily Weather History Graph

Search for Another Location

Airport or City:

Astronomy

Aug. 14, 2019 Rise Set
Actual Time 5:35 AM EDT 7:43 PM EDT
Civil Twilight 5:03 AM EDT 8:15 PM EDT
Nautical Twilight 4:24 AM EDT 8:54 PM EDT
Astronomical Twilight 3:40 AM EDT 9:37 PM EDT
Moon 7:38 PM EDT (8/14) 4:25 AM EDT (8/14)
Length of Visible Light 15h 11m
Length of Day
14h 07m
Waxing Gibbous, 99% of the Moon is Illuminated
Aug 14
Waxing Gibbous
Aug 15
Full
Aug 23
Last Quarter
Aug 30
New
Sep 5
First Quarter

Hourly Weather History & Observations

Time (EDT) Temp. Dew Point Humidity Pressure Visibility Wind Dir Wind Speed Gust Speed Precip Events Conditions
12:53 AM 63.0 °F 54.0 °F 72% 29.83 in 10.0 mi North 6.9 mph - N/A   Scattered Clouds
1:53 AM 62.1 °F 53.1 °F 72% 29.82 in 10.0 mi North 6.9 mph - N/A   Mostly Cloudy
2:53 AM 61.0 °F 54.0 °F 78% 29.83 in 10.0 mi North 6.9 mph - N/A   Mostly Cloudy
3:53 AM 59.0 °F 54.0 °F 83% 29.83 in 10.0 mi North 6.9 mph - N/A   Scattered Clouds
4:53 AM 59.0 °F 53.1 °F 81% 29.85 in 10.0 mi North 5.8 mph - N/A   Mostly Cloudy
5:53 AM 57.0 °F 52.0 °F 83% 29.87 in 10.0 mi North 5.8 mph - N/A   Scattered Clouds
6:53 AM 59.0 °F 53.1 °F 81% 29.89 in 10.0 mi North 5.8 mph - N/A   Partly Cloudy
7:53 AM 62.1 °F 52.0 °F 70% 29.90 in 10.0 mi North 9.2 mph - N/A   Partly Cloudy
8:53 AM 66.0 °F 53.1 °F 63% 29.89 in 10.0 mi North 10.4 mph - N/A   Partly Cloudy
9:53 AM 69.1 °F 53.1 °F 57% 29.90 in 10.0 mi NNE 8.1 mph - N/A   Partly Cloudy
10:53 AM 72.0 °F 52.0 °F 49% 29.89 in 10.0 mi Variable 3.5 mph - N/A   Partly Cloudy
11:53 AM 75.0 °F 51.1 °F 43% 29.88 in 10.0 mi NE 4.6 mph - N/A   Partly Cloudy
12:53 PM 77.0 °F 52.0 °F 42% 29.87 in 10.0 mi North 8.1 mph - N/A   Scattered Clouds
1:53 PM 77.0 °F 51.1 °F 40% 29.87 in 10.0 mi Variable 4.6 mph - N/A   Scattered Clouds
2:53 PM 77.0 °F 48.9 °F 37% 29.86 in 10.0 mi NNW 3.5 mph - N/A   Scattered Clouds
3:53 PM 77.0 °F 48.9 °F 37% 29.87 in 10.0 mi West 3.5 mph - N/A   Partly Cloudy
4:53 PM 77.0 °F 50.0 °F 39% 29.87 in 10.0 mi North 4.6 mph - N/A   Partly Cloudy
5:53 PM 77.0 °F 50.0 °F 39% 29.88 in 10.0 mi Calm Calm - N/A   Partly Cloudy
6:53 PM 70.0 °F 54.0 °F 57% 29.89 in 10.0 mi NW 4.6 mph - N/A   Partly Cloudy
7:53 PM 66.9 °F 55.0 °F 66% 29.90 in 10.0 mi Calm Calm - 0.00 in   Partly Cloudy
8:53 PM 64.0 °F 53.1 °F 67% 29.91 in 10.0 mi Calm Calm - N/A   Partly Cloudy
9:53 PM 63.0 °F 57.0 °F 81% 29.92 in 10.0 mi South 4.6 mph - N/A   Partly Cloudy
10:53 PM 63.0 °F 57.9 °F 84% 29.94 in 10.0 mi South 3.5 mph - N/A   Partly Cloudy
11:53 PM 62.1 °F 59.0 °F 90% 29.95 in 10.0 mi South 3.5 mph - N/A   Mostly Cloudy